Time,TemperatureF,DewpointF,PressureIn,WindDirection,WindDirectionDegrees,WindSpeedMPH,WindSpeedGustMPH,Humidity,HourlyPrecipIn,Conditions,Clouds,dailyrainin,SolarRadiationWatts/m^2,SoftwareType,DateUTC
2013-03-12 00:22:00,30.0,30.0,-100.00,NNW,337,1.0,3.0,100,0.00,,,0.13,0.000000,,2013-03-12 08:22:00,
2013-03-12 00:32:00,30.0,30.0,-100.00,NNW,337,1.0,3.0,100,0.00,,,0.13,0.000000,,2013-03-12 08:32:00,
2013-03-12 00:42:00,30.0,30.0,-100.00,NNW,337,1.0,3.0,100,0.00,,,0.13,0.000000,,2013-03-12 08:42:00,
2013-03-12 00:51:00,30.0,30.0,-100.00,NNW,337,1.0,3.0,100,0.00,,,0.13,0.000000,,2013-03-12 08:51:00,
2013-03-12 01:22:00,30.0,30.0,-100.00,NNW,341,1.0,3.0,100,0.00,,,0.12,0.000000,,2013-03-12 09:22:00,
2013-03-12 01:32:00,30.0,30.0,-100.00,NNW,341,1.0,3.0,100,0.00,,,0.12,0.000000,,2013-03-12 09:32:00,
2013-03-12 01:42:00,30.0,30.0,-100.00,NNW,341,1.0,3.0,100,0.00,,,0.12,0.000000,,2013-03-12 09:42:00,
2013-03-12 01:52:00,30.0,30.0,-100.00,NNW,341,1.0,3.0,100,0.00,,,0.12,0.000000,,2013-03-12 09:52:00,
2013-03-12 02:22:00,30.0,30.0,-100.00,NW,311,2.0,3.0,100,0.00,,,0.12,0.000000,,2013-03-12 10:22:00,
2013-03-12 02:32:00,30.0,30.0,-100.00,NW,311,2.0,3.0,100,0.00,,,0.12,0.000000,,2013-03-12 10:32:00,
2013-03-12 02:42:00,30.0,30.0,-100.00,NW,311,2.0,3.0,100,0.00,,,0.12,0.000000,,2013-03-12 10:42:00,
2013-03-12 02:52:00,30.0,30.0,-100.00,NW,311,2.0,3.0,100,0.00,,,0.12,0.000000,,2013-03-12 10:52:00,
2013-03-12 03:22:00,30.0,30.0,-100.00,NW,318,2.0,4.0,100,0.00,,,0.12,0.000000,,2013-03-12 11:22:00,
2013-03-12 03:32:00,30.0,30.0,-100.00,NW,318,2.0,4.0,100,0.00,,,0.12,0.000000,,2013-03-12 11:32:00,
2013-03-12 03:42:00,30.0,30.0,-100.00,NW,318,2.0,4.0,100,0.00,,,0.12,0.000000,,2013-03-12 11:42:00,
2013-03-12 03:52:00,30.0,30.0,-100.00,NW,318,2.0,4.0,100,0.00,,,0.12,0.000000,,2013-03-12 11:52:00,
2013-03-12 04:22:00,30.0,30.0,-100.00,NNW,333,2.0,3.0,100,0.00,,,0.12,0.000000,,2013-03-12 12:22:00,
2013-03-12 04:32:00,30.0,30.0,-100.00,NNW,333,2.0,3.0,100,0.00,,,0.12,0.000000,,2013-03-12 12:32:00,
2013-03-12 04:42:00,30.0,30.0,-100.00,NNW,333,2.0,3.0,100,0.00,,,0.12,0.000000,,2013-03-12 12:42:00,
2013-03-12 04:52:00,30.0,30.0,-100.00,NNW,333,2.0,3.0,100,0.00,,,0.12,0.000000,,2013-03-12 12:52:00,
2013-03-12 05:22:00,31.0,31.0,-100.00,NW,324,2.0,4.0,99,0.00,,,-99.99,0.000000,,2013-03-12 13:22:00,
2013-03-12 05:32:00,31.0,31.0,-100.00,NW,324,2.0,4.0,99,0.00,,,-99.99,0.000000,,2013-03-12 13:32:00,
2013-03-12 05:42:00,31.0,31.0,-100.00,NW,324,2.0,4.0,99,0.00,,,-99.99,0.000000,,2013-03-12 13:42:00,
2013-03-12 05:52:00,31.0,31.0,-100.00,NW,324,2.0,4.0,99,0.00,,,-99.99,0.000000,,2013-03-12 13:52:00,
2013-03-12 06:22:00,32.0,32.0,-100.00,NNW,344,3.0,6.0,99,0.00,,,0.12,0.000000,,2013-03-12 14:22:00,
2013-03-12 06:32:00,32.0,32.0,-100.00,NNW,344,3.0,6.0,99,0.00,,,0.12,0.000000,,2013-03-12 14:32:00,
2013-03-12 06:42:00,32.0,32.0,-100.00,NNW,344,3.0,6.0,99,0.00,,,0.12,0.000000,,2013-03-12 14:42:00,
2013-03-12 06:52:00,32.0,32.0,-100.00,NNW,344,3.0,6.0,99,0.00,,,0.12,0.000000,,2013-03-12 14:52:00,
2013-03-12 07:22:00,32.0,32.0,-100.00,NNW,343,3.0,8.0,99,0.00,,,0.12,0.000000,,2013-03-12 15:22:00,
2013-03-12 07:32:00,32.0,32.0,-100.00,NNW,343,3.0,8.0,99,0.00,,,0.12,0.000000,,2013-03-12 15:32:00,
2013-03-12 07:42:00,32.0,32.0,-100.00,NNW,343,3.0,8.0,99,0.00,,,0.12,0.000000,,2013-03-12 15:42:00,
2013-03-12 07:52:00,32.0,32.0,-100.00,NNW,343,3.0,8.0,99,0.00,,,0.12,0.000000,,2013-03-12 15:52:00,
2013-03-12 08:22:00,32.0,31.0,-100.00,NNW,345,4.0,7.0,97,0.00,,,0.12,2.000000,,2013-03-12 16:22:00,
2013-03-12 08:32:00,32.0,31.0,-100.00,NNW,345,4.0,7.0,97,0.00,,,0.12,2.000000,,2013-03-12 16:32:00,
2013-03-12 08:42:00,32.0,31.0,-100.00,NNW,345,4.0,7.0,97,0.00,,,0.12,2.000000,,2013-03-12 16:42:00,
2013-03-12 08:52:00,32.0,31.0,-100.00,NNW,345,4.0,7.0,97,0.00,,,0.12,2.000000,,2013-03-12 16:52:00,
2013-03-12 09:22:00,33.0,32.0,-100.00,North,350,5.0,9.0,97,0.00,,,0.12,24.000000,,2013-03-12 17:22:00,
2013-03-12 09:33:00,33.0,32.0,-100.00,North,350,5.0,9.0,97,0.00,,,0.12,24.000000,,2013-03-12 17:33:00,
2013-03-12 09:43:00,33.0,32.0,-100.00,North,350,5.0,9.0,97,0.00,,,0.12,24.000000,,2013-03-12 17:43:00,
2013-03-12 09:53:00,33.0,32.0,-100.00,North,350,5.0,9.0,97,0.00,,,0.12,24.000000,,2013-03-12 17:53:00,
2013-03-12 10:22:00,34.0,31.0,-100.00,NNW,348,5.0,14.0,90,0.00,,,0.12,123.000000,,2013-03-12 18:22:00,
2013-03-12 10:33:00,34.0,31.0,-100.00,NNW,348,5.0,14.0,90,0.00,,,0.12,123.000000,,2013-03-12 18:33:00,
2013-03-12 10:42:00,34.0,31.0,-100.00,NNW,348,5.0,14.0,90,0.00,,,0.12,123.000000,,2013-03-12 18:42:00,
2013-03-12 10:53:00,34.0,31.0,-100.00,NNW,348,5.0,14.0,90,0.00,,,0.12,123.000000,,2013-03-12 18:53:00,
2013-03-12 11:22:00,34.0,30.0,-100.00,NNW,339,6.0,14.0,86,0.00,,,0.11,263.000000,,2013-03-12 19:22:00,
2013-03-12 11:33:00,34.0,30.0,-100.00,NNW,339,6.0,14.0,86,0.00,,,0.11,263.000000,,2013-03-12 19:33:00,
2013-03-12 11:43:00,34.0,30.0,-100.00,NNW,339,6.0,14.0,86,0.00,,,0.11,263.000000,,2013-03-12 19:43:00,
2013-03-12 11:52:00,34.0,30.0,-100.00,NNW,339,6.0,14.0,86,0.00,,,0.11,263.000000,,2013-03-12 19:52:00,
2013-03-12 12:22:00,35.0,30.0,-100.00,NNW,339,7.0,12.0,83,0.00,,,0.09,245.000000,,2013-03-12 20:22:00,
2013-03-12 12:32:00,35.0,30.0,-100.00,NNW,339,7.0,12.0,83,0.00,,,0.09,245.000000,,2013-03-12 20:32:00,
2013-03-12 12:42:00,35.0,30.0,-100.00,NNW,339,7.0,12.0,83,0.00,,,0.09,245.000000,,2013-03-12 20:42:00,
2013-03-12 12:52:00,35.0,30.0,-100.00,NNW,339,7.0,12.0,83,0.00,,,0.09,245.000000,,2013-03-12 20:52:00,
2013-03-12 13:22:00,34.0,29.0,-100.00,NNW,332,8.0,13.0,81,0.00,,,0.06,177.000000,,2013-03-12 21:22:00,
2013-03-12 13:32:00,34.0,29.0,-100.00,NNW,332,8.0,13.0,81,0.00,,,0.06,177.000000,,2013-03-12 21:32:00,
2013-03-12 13:42:00,34.0,29.0,-100.00,NNW,332,8.0,13.0,81,0.00,,,0.06,177.000000,,2013-03-12 21:42:00,
2013-03-12 13:52:00,34.0,29.0,-100.00,NNW,332,8.0,13.0,81,0.00,,,0.06,177.000000,,2013-03-12 21:52:00,
2013-03-12 14:22:00,35.0,28.0,-100.00,North,355,8.0,20.0,74,0.04,,,0.09,392.000000,,2013-03-12 22:22:00,
2013-03-12 14:32:00,35.0,28.0,-100.00,North,355,8.0,20.0,74,0.04,,,0.09,392.000000,,2013-03-12 22:32:00,
2013-03-12 14:42:00,35.0,28.0,-100.00,North,355,8.0,20.0,74,0.04,,,0.09,392.000000,,2013-03-12 22:42:00,
2013-03-12 14:52:00,35.0,28.0,-100.00,North,355,8.0,20.0,74,0.04,,,0.09,392.000000,,2013-03-12 22:52:00,
2013-03-12 15:22:00,35.0,29.0,-100.00,NNW,343,8.0,17.0,77,0.02,,,0.06,193.000000,,2013-03-12 23:22:00,
2013-03-12 15:34:00,35.0,29.0,-100.00,NNW,343,8.0,17.0,77,0.02,,,0.06,193.000000,,2013-03-12 23:34:00,
2013-03-12 15:43:00,35.0,29.0,-100.00,NNW,343,8.0,17.0,77,0.02,,,0.06,193.000000,,2013-03-12 23:43:00,
2013-03-12 15:52:00,35.0,29.0,-100.00,NNW,343,8.0,17.0,77,0.02,,,0.06,193.000000,,2013-03-12 23:52:00,
2013-03-12 16:22:00,33.0,26.0,-100.00,NNW,334,7.0,14.0,75,0.01,,,0.07,117.000000,,2013-03-13 00:22:00,
2013-03-12 16:33:00,33.0,26.0,-100.00,NNW,334,7.0,14.0,75,0.01,,,0.07,117.000000,,2013-03-13 00:33:00,
2013-03-12 16:42:00,33.0,26.0,-100.00,NNW,334,7.0,14.0,75,0.01,,,0.07,117.000000,,2013-03-13 00:42:00,
2013-03-12 16:52:00,33.0,26.0,-100.00,NNW,334,7.0,14.0,75,0.01,,,0.07,117.000000,,2013-03-13 00:52:00,
2013-03-12 17:22:00,33.0,26.0,-100.00,NNW,335,7.0,13.0,76,0.01,,,0.08,76.000000,,2013-03-13 01:22:00,
2013-03-12 17:32:00,33.0,26.0,-100.00,NNW,335,7.0,13.0,76,0.01,,,0.08,76.000000,,2013-03-13 01:32:00,
2013-03-12 17:42:00,33.0,26.0,-100.00,NNW,335,7.0,13.0,76,0.01,,,0.08,76.000000,,2013-03-13 01:42:00,
2013-03-12 17:52:00,33.0,26.0,-100.00,NNW,335,7.0,13.0,76,0.01,,,0.08,76.000000,,2013-03-13 01:52:00,
2013-03-12 18:22:00,33.0,26.0,-100.00,North,350,7.0,13.0,76,0.00,,,0.08,52.000000,,2013-03-13 02:22:00,
2013-03-12 18:32:00,33.0,26.0,-100.00,North,350,7.0,13.0,76,0.00,,,0.08,52.000000,,2013-03-13 02:32:00,
2013-03-12 18:42:00,33.0,26.0,-100.00,North,350,7.0,13.0,76,0.00,,,0.08,52.000000,,2013-03-13 02:42:00,
2013-03-12 18:52:00,33.0,26.0,-100.00,North,350,7.0,13.0,76,0.00,,,0.08,52.000000,,2013-03-13 02:52:00,
2013-03-12 19:22:00,30.0,28.0,-100.00,North,349,7.0,16.0,93,0.00,,,0.08,36.000000,,2013-03-13 03:22:00,
2013-03-12 19:32:00,30.0,28.0,-100.00,North,349,7.0,16.0,93,0.00,,,0.08,36.000000,,2013-03-13 03:32:00,
2013-03-12 19:42:00,30.0,28.0,-100.00,North,349,7.0,16.0,93,0.00,,,0.08,36.000000,,2013-03-13 03:42:00,
2013-03-12 19:52:00,30.0,28.0,-100.00,North,349,7.0,16.0,93,0.00,,,0.08,36.000000,,2013-03-13 03:52:00,
2013-03-12 20:22:00,30.0,29.0,-100.00,NNW,346,7.0,13.0,98,0.00,,,0.08,0.000000,,2013-03-13 04:22:00,
2013-03-12 20:32:00,30.0,29.0,-100.00,NNW,346,7.0,13.0,98,0.00,,,0.08,0.000000,,2013-03-13 04:32:00,
2013-03-12 20:42:00,30.0,29.0,-100.00,NNW,346,7.0,13.0,98,0.00,,,0.08,0.000000,,2013-03-13 04:42:00,
2013-03-12 20:52:00,30.0,29.0,-100.00,NNW,346,7.0,13.0,98,0.00,,,0.08,0.000000,,2013-03-13 04:52:00,
2013-03-12 21:22:00,29.0,29.0,-100.00,NNW,348,8.0,15.0,98,0.00,,,0.08,0.000000,,2013-03-13 05:22:00,
2013-03-12 21:32:00,29.0,29.0,-100.00,NNW,348,8.0,15.0,98,0.00,,,0.08,0.000000,,2013-03-13 05:32:00,
2013-03-12 21:42:00,29.0,29.0,-100.00,NNW,348,8.0,15.0,98,0.00,,,0.08,0.000000,,2013-03-13 05:42:00,
2013-03-12 21:52:00,29.0,29.0,-100.00,NNW,348,8.0,15.0,98,0.00,,,0.08,0.000000,,2013-03-13 05:52:00,
2013-03-12 22:22:00,29.0,29.0,-100.00,NNW,345,9.0,15.0,99,0.00,,,0.08,0.000000,,2013-03-13 06:22:00,
2013-03-12 22:32:00,29.0,29.0,-100.00,NNW,345,9.0,15.0,99,0.00,,,0.08,0.000000,,2013-03-13 06:32:00,
2013-03-12 22:42:00,29.0,29.0,-100.00,NNW,345,9.0,15.0,99,0.00,,,0.08,0.000000,,2013-03-13 06:42:00,
2013-03-12 22:52:00,29.0,29.0,-100.00,NNW,345,9.0,15.0,99,0.00,,,0.08,0.000000,,2013-03-13 06:52:00,
2013-03-12 23:22:00,29.0,29.0,-100.00,NNW,336,8.0,14.0,98,0.00,,,0.08,0.000000,,2013-03-13 07:22:00,
2013-03-12 23:32:00,29.0,29.0,-100.00,NNW,336,8.0,14.0,98,0.00,,,0.08,0.000000,,2013-03-13 07:32:00,
2013-03-12 23:42:00,29.0,29.0,-100.00,NNW,336,8.0,14.0,98,0.00,,,0.08,0.000000,,2013-03-13 07:42:00,
2013-03-12 23:52:00,29.0,29.0,-100.00,NNW,336,8.0,14.0,98,0.00,,,0.08,0.000000,,2013-03-13 07:52:00,